Weather History for Middletown, OH

Change the Weather History Date:

Sunday, June 23, 2013

  Actual Average (KDAY) Record (KDAY)
Temperature  
Mean Temperature 76 °F 73 °F  
Max Temperature 87 °F 82 °F 98 °F (1899)
Min Temperature 64 °F 63 °F 43 °F (1902)
Degree Days  
Heating Degree Days 0 0  
Month to date heating degree days 22  
Since 1 June heating degree days 22  
Since 1 July heating degree days 5642  
Cooling Degree Days 10 8  
Month to date cooling degree days 131  
Year to date cooling degree days 201  
Since 1 June cooling degree days 131  
Growing Degree Days 26 (Base 50)    
Moisture  
Dew Point 70 °F    
Average Humidity 88    
Maximum Humidity 100    
Minimum Humidity 56    
Precipitation  
Precipitation 0.00 in 0.13 in 1.04 in (1896)
Month to date precipitation 3.22  
Year to date precipitation 20.26  
Snow  
Snow 0.00 in 0.00 in - ()
Month to date snowfall 0.0  
Since 1 June snowfall 0.0  
Since 1 July snowfall 23.3  
Snow Depth -    
Sea Level Pressure  
Sea Level Pressure 30.12 in    
Wind  
Wind Speed 3 mph (SW)    
Max Wind Speed 21 mph    
Max Gust Speed 47 mph    
Visibility 6 miles    
Events Rain    
T = Trace of Precipitation, MM = Missing Value Source: NWS Daily Summary

Daily Weather History Graph

Daily Weather History Graph

Search for Another Location

Airport:

Trip Planner

Search our weather history database for the weather conditions in past years. The results will help you decide how hot, cold, wet, or windy it might be!

Date:

Astronomy

Jun. 23, 2013 Rise Set
Actual Time 6:10 AM EDT 9:08 PM EDT
Civil Twilight 5:38 AM EDT 9:41 PM EDT
Nautical Twilight 4:57 AM EDT 10:22 PM EDT
Astronomical Twilight 4:09 AM EDT 11:10 PM EDT
Moon 9:20 PM EDT (6/23) 6:27 AM EDT (6/23)
Length of Visible Light 16h 02m
Length of Day
14h 57m
Full, 100% of the Moon is Illuminated
Jun 23
Full
Jun 30
Last Quarter
Jul 8
New
Jul 15
First Quarter
Jul 22
Full

Hourly Weather History & Observations

Time (EDT) Temp. Heat Index Dew Point Humidity Pressure Visibility Wind Dir Wind Speed Gust Speed Precip Events Conditions
12:15 AM 67.6 °F - 67.6 °F 100% 30.13 in 5.0 mi Calm Calm - N/A   Clear
12:35 AM 67.6 °F - 67.6 °F 100% 30.13 in 4.0 mi Calm Calm - N/A   Clear
12:55 AM 67.6 °F - 67.6 °F 100% 30.12 in 5.0 mi Calm Calm - N/A   Clear
1:15 AM 67.6 °F - 67.6 °F 100% 30.11 in 2.5 mi Calm Calm - N/A   Clear
1:35 AM 67.6 °F - 67.6 °F 100% 30.11 in 4.0 mi Calm Calm - N/A   Clear
1:55 AM 67.6 °F - 67.6 °F 100% 30.10 in 2.5 mi NW 5.8 mph - N/A   Clear
2:15 AM 67.6 °F - 67.6 °F 100% 30.11 in 5.0 mi Calm Calm - N/A   Clear
2:35 AM 67.6 °F - 67.6 °F 100% 30.11 in 5.0 mi Calm Calm - N/A   Clear
2:55 AM 67.6 °F - 67.6 °F 100% 30.11 in 4.0 mi Calm Calm - N/A   Clear
3:15 AM 67.6 °F - 67.6 °F 100% 30.10 in 3.0 mi Calm Calm - N/A   Clear
3:35 AM 67.6 °F - 67.6 °F 100% 30.10 in 3.0 mi North 3.5 mph - N/A   Clear
3:55 AM 67.3 °F - 67.3 °F 100% 30.10 in 2.5 mi Calm Calm - N/A   Clear
4:15 AM 67.6 °F - 67.6 °F 100% 30.10 in 1.5 mi Calm Calm - N/A   Mist
4:35 AM 65.5 °F - 65.5 °F 100% 30.11 in 2.5 mi Calm Calm - N/A   Clear
4:55 AM 67.6 °F - 67.6 °F 100% 30.11 in 2.5 mi Calm Calm - N/A   Clear
5:15 AM 67.6 °F - 67.6 °F 100% 30.12 in 1.8 mi Calm Calm - N/A   Mist
5:35 AM 66.2 °F - 66.2 °F 100% 30.13 in 1.5 mi Calm Calm - N/A   Mist
5:55 AM 65.3 °F - 65.3 °F 100% 30.14 in 1.8 mi Calm Calm - N/A   Mist
6:15 AM 65.3 °F - 65.3 °F 100% 30.14 in 2.0 mi Calm Calm - N/A   Clear
6:35 AM 64.6 °F - 64.6 °F 100% 30.14 in 1.8 mi Calm Calm - N/A   Mist
6:55 AM 67.6 °F - 67.6 °F 100% 30.15 in 2.5 mi Calm Calm - N/A   Clear
7:15 AM 67.6 °F - 67.6 °F 100% 30.15 in 2.0 mi Calm Calm - N/A   Clear
7:35 AM 67.6 °F - 67.6 °F 100% 30.15 in 2.0 mi Calm Calm - N/A   Clear
7:55 AM 67.6 °F - 67.6 °F 100% 30.16 in 3.0 mi Calm Calm - N/A   Clear
8:15 AM 70.3 °F - 70.3 °F 100% 30.15 in 4.0 mi Calm Calm - N/A   Clear
8:35 AM 72.7 °F - 72.7 °F 100% 30.16 in 5.0 mi Calm Calm - N/A   Clear
8:55 AM 72.7 °F - 71.2 °F 95% 30.17 in 5.0 mi Calm Calm - N/A   Clear
9:15 AM 75.2 °F - 72.0 °F 90% 30.17 in 7.0 mi SW 5.8 mph - N/A   Clear
9:35 AM 75.4 °F - 71.6 °F 88% 30.17 in 10.0 mi SSW 3.5 mph - N/A   Clear
9:55 AM 77.9 °F - 72.7 °F 84% 30.17 in 10.0 mi SW 3.5 mph - N/A   Clear
10:15 AM 77.9 °F - 72.0 °F 82% 30.17 in 10.0 mi South 5.8 mph - N/A   Clear
10:35 AM 80.2 °F 84.6 °F 73.2 °F 79% 30.16 in 10.0 mi SSW 4.6 mph - N/A   Clear
10:55 AM 80.2 °F 84.3 °F 72.5 °F 77% 30.16 in 10.0 mi SW 8.1 mph - N/A   Clear
11:15 AM 81.9 °F 87.0 °F 72.9 °F 74% 30.15 in 10.0 mi SSW 9.2 mph - N/A   Clear
11:35 AM 82.0 °F 86.7 °F 71.6 °F 71% 30.15 in 10.0 mi WSW 6.9 mph - N/A   Clear
11:55 AM 85.3 °F 92.2 °F 73.2 °F 67% 30.14 in 10.0 mi SSW 8.1 mph - N/A   Clear
12:15 PM 86.9 °F 95.9 °F 74.7 °F 67% 30.12 in 10.0 mi South 10.4 mph - N/A   Clear
12:35 PM 87.8 °F 97.6 °F 75.4 °F 66% 30.12 in 10.0 mi SSW 12.7 mph 18.4 mph N/A   Scattered Clouds
12:55 PM 87.8 °F 96.6 °F 74.3 °F 64% 30.12 in 10.0 mi SSW 10.4 mph - N/A   Scattered Clouds
1:15 PM 87.8 °F 95.2 °F 72.9 °F 61% 30.11 in 10.0 mi South 12.7 mph 17.3 mph N/A   Scattered Clouds
1:35 PM 87.8 °F 95.2 °F 73.0 °F 61% 30.11 in 10.0 mi SW 12.7 mph 18.4 mph N/A   Scattered Clouds
1:55 PM 87.8 °F 94.3 °F 72.0 °F 59% 30.11 in 10.0 mi SSW 10.4 mph 17.3 mph N/A   Scattered Clouds
2:15 PM 87.8 °F 94.7 °F 72.1 °F 60% 30.11 in 10.0 mi WSW 12.7 mph 18.4 mph N/A   Clear
2:35 PM 87.8 °F 94.3 °F 71.8 °F 59% 30.11 in 10.0 mi SW 11.5 mph - N/A   Scattered Clouds
2:55 PM 87.8 °F 93.4 °F 70.7 °F 57% 30.10 in 10.0 mi SW 10.4 mph 18.4 mph N/A   Scattered Clouds
3:15 PM 87.8 °F 93.4 °F 70.7 °F 57% 30.10 in 10.0 mi SSW 13.8 mph 17.3 mph N/A   Scattered Clouds
3:35 PM 87.8 °F 93.0 °F 70.3 °F 56% 30.09 in 10.0 mi SW 12.7 mph - N/A   Clear
3:55 PM 87.8 °F 93.0 °F 70.3 °F 56% 30.08 in 10.0 mi SSW 11.5 mph 20.7 mph N/A   Clear
4:15 PM 87.8 °F 93.8 °F 71.4 °F 58% 30.08 in 10.0 mi SSW 11.5 mph - N/A   Scattered Clouds
4:35 PM 87.8 °F 93.8 °F 71.2 °F 58% 30.07 in 10.0 mi South 9.2 mph - N/A   Scattered Clouds
4:55 PM 87.8 °F 93.8 °F 71.2 °F 58% 30.07 in 10.0 mi SSW 11.5 mph - N/A   Mostly Cloudy
5:15 PM 87.8 °F 95.2 °F 72.9 °F 61% 30.07 in 10.0 mi West 15.0 mph - N/A   Overcast
5:35 PM 72.7 °F - 72.3 °F 99% 30.08 in 2.0 mi WSW 20.7 mph 47.2 mph N/A Rain Light Rain
5:55 PM 72.7 °F - 72.1 °F 98% 30.11 in 7.0 mi SW 8.1 mph - N/A Rain Rain
6:15 PM 72.7 °F - 71.4 °F 96% 30.11 in 7.0 mi Calm Calm - N/A Rain Light Rain
6:35 PM 72.7 °F - 72.7 °F 100% 30.09 in 7.0 mi Calm Calm - N/A Rain Light Rain
6:55 PM 72.7 °F - 72.5 °F 99% 30.09 in 10.0 mi West 5.8 mph - N/A   Scattered Clouds
7:15 PM 72.7 °F - 70.2 °F 92% 30.09 in 10.0 mi West 4.6 mph - N/A   Clear
7:35 PM 75.2 °F - 71.8 °F 89% 30.09 in 10.0 mi Calm Calm - N/A   Clear
7:55 PM 75.2 °F - 72.3 °F 91% 30.09 in 10.0 mi SW 4.6 mph - N/A   Clear
8:15 PM 75.2 °F - 72.1 °F 90% 30.09 in 10.0 mi Calm Calm - N/A   Clear
8:35 PM 74.5 °F - 72.1 °F 92% 30.09 in 10.0 mi Calm Calm - N/A   Clear
8:55 PM 72.7 °F - 72.7 °F 100% 30.10 in 7.0 mi Calm Calm - N/A   Clear
9:15 PM 72.7 °F - 72.7 °F 100% 30.10 in 10.0 mi SSW 4.6 mph - N/A   Clear
9:35 PM 72.7 °F - 72.7 °F 100% 30.11 in 7.0 mi Calm Calm - N/A   Clear
9:55 PM 72.7 °F - 72.7 °F 100% 30.12 in 10.0 mi Calm Calm - N/A   Clear
10:15 PM 69.4 °F - 69.4 °F 100% 30.12 in 4.0 mi North 3.5 mph - N/A   Clear
10:35 PM 69.8 °F - 69.8 °F 100% 30.13 in 5.0 mi Calm Calm - N/A   Clear
10:55 PM 67.6 °F - 67.6 °F 100% 30.13 in 4.0 mi NW 3.5 mph - N/A   Clear
11:15 PM 67.6 °F - 67.6 °F 100% 30.14 in 3.0 mi Calm Calm - N/A   Clear
11:35 PM 67.6 °F - 67.6 °F 100% 30.14 in 4.0 mi Calm Calm - N/A   Clear
11:55 PM 67.6 °F - 67.6 °F 100% 30.14 in 3.0 mi Calm Calm - N/A   Clear